Regional Weather Roundup
Issued by NWS

Home | Current Version | Previous Version | Text Only | Print | Product List | Glossary Off
Versions: 1 2 3 4 5 6 7 8 9 10 11 12 13 14 15 16 17 18 19 20 21 22 23 24 25 26 27 28 29 30 31 32 33 34 35 36 37 38 39 40 41 42 43 44 45 46 47 48 49 50

000
ASUS43 KMPX 182310
RWRMN
WEATHER ROUNDUP FOR MINNESOTA
NATIONAL WEATHER SERVICE TWIN CITIES/CHANHASSEN MN
500 PM CST THU JAN 18 2018


NOTE: "FAIR" INDICATES FEW OR NO CLOUDS BELOW 12,000 FEET WITH NO
SIGNIFICANT WEATHER AND/OR OBSTRUCTIONS TO VISIBILITY. N/A MEANS
CURRENT SKY AND/OR WEATHER CONDITIONS ARE NOT AVAILABLE.

MNZ060>063-068>070-190000-
   Twin Cities Metro

CITY           SKY/WX    TMP DP  RH WIND       PRES   REMARKS
TWIN CITIES    CLOUDY    39  28  64 SW3       29.80R
ST PAUL        FAIR      38  26  62 CALM      29.81R
CRYSTAL        FAIR      38  24  57 S5        29.78R
BLAINE         MOCLDY    41  27  56 SW3       29.78R
LAKEVILLE      FAIR      34  27  75 CALM      29.80R
EDEN PRAIRIE   FAIR      37  27  67 S5        29.78R
SOUTH ST PAUL  FAIR      37  26  65 CALM      29.80R
LAKE ELMO      FAIR      34  27  75 S7        29.80R WCI  28
$$
MNZ001>005-007-008-013>017-022>024-027-028-190000-
   Northwest Minnesota

CITY           SKY/WX    TMP DP  RH WIND       PRES   REMARKS
BEMIDJI        FAIR      27  24  89 CALM      29.71F
HALLOCK        FAIR      23  19  86 S12       29.67S WCI  12
ROSEAU         MOCLDY    27  21  80 SE5       29.66F WCI  21
WARROAD        CLOUDY    27  21  80 SW3       29.68F
THIEF RVR FALL FAIR      22  18  85 S9        29.69F WCI  12
CROOKSTON      FAIR      23  19  86 S10       29.71F WCI  12
FOSSTON        FAIR      21  18  86 S8        29.71F WCI  12
DETROIT LAKES  FAIR      28  21  74 S3        29.73F
MOORHEAD       FAIR      28  23  80 S3        29.75F
PARK RAPIDS    FAIR      26  19  74 SW7       29.72S WCI  18
MAHNOMEN       FAIR      24  20  85 S6        29.71F WCI  16
$$
MNZ006-009>011-018-025>026-190000-
   North Central Minnesota

CITY           SKY/WX    TMP DP  RH WIND       PRES   REMARKS
BAUDETTE       CLOUDY    28  23  81 W6        29.67F WCI  22
FLAG ISLAND    CLOUDY    25  19  80 SW7       29.66S WCI  17
INTL FALLS     CLOUDY    27  20  75 VRB6      29.69S WCI  20
WASKISH        CLOUDY    28  27  93 SW5       29.70F WCI  23
BIG FORK       CLOUDY    30  25  80 W5        29.71R WCI  25
LONGVILLE      FAIR      30  25  80 CALM      29.72S
GRAND RAPIDS   FAIR      30  24  78 W3        29.74R
CRANE LAKE     CLOUDY    27  25  93 CALM      29.71S
ORR            CLOUDY    27  21  80 W7        29.69R WCI  19
COOK           CLOUDY    28  23  80 W9        29.71R WCI  20
WALKER         FAIR      31  24  73 SW3       29.72S
$$
MNZ012-019>021-037-190000-
   Northeast Minnesota

CITY           SKY/WX    TMP DP  RH WIND       PRES   REMARKS
DULUTH         FAIR      33  25  72 NW3       29.70S
ELY            CLOUDY    28  25  86 W8        29.68S WCI  20
HIBBING        CLOUDY    29  24  82 W5        29.71R WCI  24
EVELETH        CLOUDY    30  22  72 W9        29.71S WCI  22
DULUTH HARBOR  FAIR      36  28  75 CALM      29.74S
TWO HARBORS    CLOUDY    36  28  75 W5        29.70R
SILVER BAY     CLOUDY    32  25  74 W3        29.70R
GRAND MARAIS     N/A     35  28  75 VRB3      29.70S
G MARAIS ARPRT CLOUDY    28  25  86 W5        29.65F WCI  23
$$
MNZ029>031-032-039>041-046>048-054>057-064-190000-
   West Central Minnesota

CITY           SKY/WX    TMP DP  RH WIND       PRES   REMARKS
FERGUS FALLS   FAIR      30  25  80 CALM      29.74S
WHEATON        CLOUDY    39  27  60 CALM      29.78R
MORRIS         CLOUDY    37  28  70 CALM      29.75R
ALEXANDRIA     FAIR      34  24  67 W3        29.75S
ELBOW LAKE     FAIR      32  26  78 CALM      29.75S
WADENA         FAIR      28  21  74 CALM      29.73F
GLENWOOD       FAIR      34  27  75 CALM      29.75S
APPLETON       CLOUDY    39  30  70 CALM      29.75F
BENSON         CLOUDY    37  28  70 CALM      29.77S
ORTONVILLE     CLOUDY    37  27  65 NW3       29.76S
MADISON        CLOUDY    43  30  61 W6        29.76S
WILLMAR        FAIR      37  28  70 CALM      29.79S
$$
MNZ033>034-036-042>043-049>051-058-059-190000-
   Central Minnesota

CITY           SKY/WX    TMP DP  RH WIND       PRES   REMARKS
ST CLOUD       FAIR      33  25  72 SW5       29.76S WCI  29
SAUK CENTRE      N/A     34  27  74 W5        29.76S WCI  30
PAYNESVILLE    FAIR      35  29  80 CALM      29.76F
AITKIN         FAIR      30  21  69 CALM      29.72S
PINE RIVER     FAIR      30  23  74 CALM      29.77S
BRAINERD       FAIR      30  22  72 CALM      29.74F
STAPLES        FAIR      27  19  74 CALM      29.74S
LONG PRAIRIE   FAIR      32  25  74 CALM      29.75F
LITTLE FALLS   FAIR      32  19  59 CALM      29.75F
LITCHFIELD     FAIR      37  30  75 CALM      29.78R
BUFFALO        FAIR      34  27  74 CALM      29.78F
MAPLE LAKE     FAIR      37  29  74 MISG      29.78S
HUTCHINSON     FAIR      38  32  78 S5        29.79S
$$
MNZ037-044-045-052-053-190000-
   East Central Minnesota

CITY           SKY/WX    TMP DP  RH WIND       PRES   REMARKS
PRINCETON      FAIR      37  25  60 CALM      29.77S
MORA           FAIR      32  23  69 CALM      29.77F
CAMBRIDGE      FAIR      37  25  60 S3        29.77S
RUSH CITY      FAIR      31  22  70 CALM      29.76S
MOOSE LAKE     FAIR      34  27  75 SW5       29.72S WCI  30
HINCKLEY       FAIR      34  25  69 SW3       29.75F
CLOQUET        FAIR      34  25  69 SW5       29.71S WCI  30
MCGREGOR       FAIR      34  28  80 CALM      29.73F
$$
MNZ071>073-080-081-089-090-097-098-190000-
   Southwest Minnesota

CITY           SKY/WX    TMP DP  RH WIND       PRES   REMARKS
MONTEVIDEO     CLOUDY    39  28  65 W5        29.76F
GRANITE FALLS  CLOUDY    38  32  78 S9        29.78F
CANBY          CLOUDY    40  28  64 NW5       29.78R
MARSHALL       CLOUDY    37  28  70 SW8       29.79S
REDWOOD FALLS  CLOUDY    38  31  76 SW13      29.78S
OLIVIA         CLOUDY    36  32  87 SW8       29.77S
PIPESTONE      CLOUDY    32  27  80 SW7       29.80R WCI  26
WINDOM         CLOUDY    36  19  51 SW12      29.81S
WORTHINGTON    CLOUDY    35  28  75 SW12      29.82S WCI  27
JACKSON        CLOUDY    36  28  75 SW9       29.83R
SLAYTON        CLOUDY    34  28  81 SW8       29.81R WCI  27
$$
MNZ065>067-074>077-082>085-091>093-190000-
   South Central Minnesota

CITY           SKY/WX    TMP DP  RH WIND       PRES   REMARKS
MANKATO        FAIR      38  29  70 SW9       29.82R
NEW ULM        CLOUDY    37  28  70 SW9       29.80R
ST JAMES       CLOUDY    36  30  80 SW7       29.83S
FAIRMONT       CLOUDY    37  28  70 SW6       29.84R
GLENCOE        FAIR      39  32  75 S3        29.78R
FARIBAULT      FAIR      36  28  75 S8        29.82R
OWATONNA       FAIR      34  28  80 S8        29.82R WCI  27
WASECA         FAIR      32  28  86 SW9       29.84R WCI  24
ALBERT LEA     FAIR      34  23  64 SW9       29.83S WCI  26
$$
MNZ078>079-086>088-094>096-190000-
   Southeast Minnesota

CITY           SKY/WX    TMP DP  RH WIND       PRES   REMARKS
ROCHESTER      FAIR      31  23  72 SW14      29.81F WCI  21
RED WING       FAIR      36  23  60 SW3       29.81S
STANTON        FAIR      34  28  77 SW10      29.80R WCI  26
DODGE CENTER   FAIR      32  27  80 S9        29.81F WCI  24
WINONA         FAIR      36  27  69 CALM      29.83F
AUSTIN         FAIR      30  23  74 SW7       29.83F WCI  23
PRESTON        FAIR      32  23  70 SW12G20   29.83F WCI  23
$$
ABBREVIATIONS USED IN REMARKS
   TC - TEMPERATURES IN CELSIUS
  WCI - WIND CHILL INDEX
   HX - HEAT INDEX
  VSB - VISIBILITY
$$




USA.gov is the U.S. government's official web portal to all federal, state and local government web resources and services.